Location: Bolzano
(46.5170°N, 11.3670°E)
Time: 09:56:40
(UTC+01:00)

ISS - Pass Details

Date: 06 December 2021
Orbit: 413 x 422 km, 51.6° (Epoch: 22 January)

Event Time Altitude Azimuth Distance (km) Brightness Sun altitude
Rises 18:05:55 0° 294° (WNW) 2,372 0.9 -16.2°
Reaches altitude 10° 18:08:05 10° 287° (WNW) 1,504 -0.1 -16.6°
Maximum altitude 18:11:18 42° 216° (SW) 613 -2.6 -17.1°
Enters shadow 18:13:46 15° 148° (SSE) 1,220 -1.6 -17.5°
